Volver al catálogo

COSMOS 374 DEB

ActivoUNKNOWN
NORAD 5076·DEBRIS·🇷🇺 Russia

Lanzado Oct 23, 1970 desde Baikonur Cosmodrome

Loading…

Próximos Pases (próximas 24 horas)

TLE

ActualizadoSource: Space-Track

Época: Sep 14, 2026, 00:59 UTC

1 05076U 70089AP  26257.04144720  .00000068  00000-0  77248-4 0  9992
2 05076  62.8042 278.3567 0965151 218.9169 133.8405 12.87512911607131

Sigue COSMOS 374 DEB en tiempo real con AllMySat

Download on the App Store